| time (UTC) | temp F | wind direction | speed MPH | gust MPH | rain 1hr in | rain 24hr in | rain mn in | humidity % | barometer mb |
| 20260507043833 | 46 | 12 | 1.0 | 6.0 | 0.00 | 0.25 | 0.24 | 95 | 1009.0 |
| 20260507043331 | 46 | 2 | 0.0 | 6.0 | 0.00 | 0.25 | 0.24 | 95 | 1008.9 |
| 20260507043133 | 46 | 25 | 1.0 | 6.0 | 0.00 | 0.25 | 0.24 | 95 | 1008.9 |
| 20260507042331 | 46 | 1 | 2.0 | 7.0 | 0.00 | 0.25 | 0.24 | 95 | 1008.8 |
| 20260507042139 | 47 | 1 | 1.0 | 7.0 | 0.00 | 0.25 | 0.24 | 95 | 1008.7 |
| 20260507041332 | 47 | 4 | 0.0 | 6.0 | 0.00 | 0.25 | 0.24 | 95 | 1008.7 |
| 20260507040832 | 47 | 347 | 0.0 | 4.0 | 0.00 | 0.25 | 0.24 | 95 | 1008.6 |
| 20260507040620 | 47 | 8 | 0.0 | 1.0 | 0.00 | 0.25 | 0.24 | 95 | 1008.5 |
| 20260507035831 | 47 | 16 | 0.0 | 4.0 | 0.01 | 0.25 | 0.24 | 95 | 1008.5 |
| 20260507035627 | 47 | 16 | 1.0 | 5.0 | 0.01 | 0.25 | 0.24 | 95 | 1008.4 |
| 20260507034913 | 47 | 11 | 1.0 | 5.0 | 0.01 | 0.25 | 0.24 | 95 | 1008.3 |
| 20260507033834 | 47 | 359 | 1.0 | 8.0 | 0.01 | 0.25 | 0.24 | 95 | 1008.2 |
| 20260507033334 | 47 | 1 | 0.0 | 5.0 | 0.02 | 0.25 | 0.24 | 95 | 1008.2 |
| 20260507032834 | 47 | 8 | 0.0 | 5.0 | 0.02 | 0.25 | 0.24 | 95 | 1008.2 |
| 20260507032333 | 47 | 30 | 1.0 | 5.0 | 0.02 | 0.25 | 0.24 | 95 | 1008.1 |
| 20260507031833 | 47 | 354 | 1.0 | 5.0 | 0.03 | 0.25 | 0.24 | 95 | 1008.1 |
| 20260507031334 | 47 | 4 | 2.0 | 9.0 | 0.04 | 0.25 | 0.24 | 95 | 1008.0 |
| 20260507030834 | 47 | 5 | 2.0 | 9.0 | 0.05 | 0.25 | 0.24 | 95 | 1008.0 |
| 20260507030334 | 47 | 359 | 1.0 | 8.0 | 0.05 | 0.25 | 0.24 | 95 | 1008.0 |
| 20260507025824 | 47 | 1 | 1.0 | 6.0 | 0.05 | 0.24 | 0.24 | 95 | 1008.0 |
| 20260507025324 | 47 | 46 | 1.0 | 5.0 | 0.06 | 0.24 | 0.24 | 95 | 1007.9 |
| 20260507024822 | 47 | 67 | 2.0 | 7.0 | 0.06 | 0.24 | 0.24 | 94 | 1007.9 |
| 20260507024322 | 47 | 338 | 2.0 | 9.0 | 0.08 | 0.24 | 0.24 | 94 | 1007.8 |
| 20260507024118 | 47 | 353 | 2.0 | 9.0 | 0.09 | 0.24 | 0.24 | 94 | 1007.7 |
| 20260507023320 | 47 | 0 | 2.0 | 7.0 | 0.09 | 0.24 | 0.23 | 94 | 1007.6 |
| 20260507022820 | 47 | 8 | 3.0 | 8.0 | 0.10 | 0.23 | 0.22 | 94 | 1007.5 |
| 20260507022318 | 47 | 25 | 4.0 | 9.0 | 0.11 | 0.23 | 0.22 | 94 | 1007.4 |
| 20260507022126 | 47 | 22 | 3.0 | 9.0 | 0.12 | 0.22 | 0.21 | 94 | 1007.5 |
| 20260507021307 | 47 | 27 | 2.0 | 8.0 | 0.13 | 0.21 | 0.20 | 94 | 1007.5 |
| 20260507020806 | 47 | 6 | 3.0 | 9.0 | 0.13 | 0.20 | 0.20 | 94 | 1007.4 |
| 20260507020307 | 47 | 20 | 4.0 | 9.0 | 0.13 | 0.20 | 0.19 | 94 | 1007.5 |
| 20260507015805 | 47 | 39 | 3.0 | 8.0 | 0.13 | 0.20 | 0.18 | 94 | 1007.5 |
| 20260507015307 | 47 | 0 | 2.0 | 9.0 | 0.11 | 0.18 | 0.17 | 94 | 1007.5 |
| 20260507014804 | 47 | 25 | 2.0 | 9.0 | 0.12 | 0.18 | 0.17 | 94 | 1007.5 |
| 20260507014303 | 47 | 34 | 2.0 | 8.0 | 0.11 | 0.17 | 0.15 | 94 | 1007.6 |
| 20260507013803 | 47 | 4 | 2.0 | 7.0 | 0.09 | 0.15 | 0.14 | 94 | 1007.6 |
| 20260507013306 | 47 | 31 | 2.0 | 8.0 | 0.09 | 0.14 | 0.13 | 94 | 1007.6 |
| 20260507012805 | 47 | 15 | 2.0 | 8.0 | 0.09 | 0.13 | 0.12 | 94 | 1007.6 |
| 20260507012306 | 47 | 0 | 3.0 | 8.0 | 0.08 | 0.12 | 0.11 | 94 | 1007.5 |
| 20260507011805 | 48 | 32 | 2.0 | 8.0 | 0.07 | 0.10 | 0.09 | 93 | 1007.5 |
| 20260507011304 | 48 | 10 | 3.0 | 8.0 | 0.06 | 0.09 | 0.08 | 93 | 1007.5 |
| 20260507010806 | 48 | 1 | 3.0 | 8.0 | 0.06 | 0.08 | 0.07 | 94 | 1007.5 |
| 20260507010303 | 48 | 30 | 3.0 | 7.0 | 0.06 | 0.07 | 0.06 | 93 | 1007.5 |
| 20260507005806 | 48 | 4 | 2.0 | 7.0 | 0.06 | 0.07 | 0.06 | 93 | 1007.5 |
| 20260507005305 | 48 | 10 | 1.0 | 7.0 | 0.06 | 0.07 | 0.06 | 93 | 1007.5 |
| 20260507005058 | 48 | 1 | 1.0 | 7.0 | 0.06 | 0.07 | 0.06 | 93 | 1007.6 |
| 20260507004250 | 48 | 25 | 1.0 | 7.0 | 0.05 | 0.06 | 0.05 | 93 | 1007.5 |
| 20260507003748 | 48 | 28 | 1.0 | 7.0 | 0.05 | 0.06 | 0.05 | 93 | 1007.5 |
| 20260507003247 | 48 | 29 | 2.0 | 7.0 | 0.04 | 0.06 | 0.04 | 92 | 1007.6 |
| 20260507002745 | 48 | 4 | 1.0 | 6.0 | 0.03 | 0.05 | 0.03 | 92 | 1007.6 |
| 20260507002244 | 48 | 1 | 1.0 | 6.0 | 0.03 | 0.06 | 0.03 | 92 | 1007.5 |
| 20260507001743 | 49 | 44 | 1.0 | 6.0 | 0.02 | 0.05 | 0.02 | 92 | 1007.5 |
| 20260507001244 | 49 | 1 | 2.0 | 6.0 | 0.02 | 0.05 | 0.02 | 91 | 1007.6 |
| 20260507000740 | 49 | 9 | 1.0 | 5.0 | 0.02 | 0.05 | 0.01 | 91 | 1007.5 |
| 20260507000234 | 49 | 352 | 1.0 | 7.0 | 0.01 | 0.05 | 0.01 | 91 | 1007.6 |
| 20260506235732 | 49 | 358 | 1.0 | 7.0 | 0.00 | 0.06 | 0.00 | 90 | 1007.5 |
| 20260506235528 | 50 | 357 | 1.0 | 6.0 | 0.00 | 0.08 | 0.00 | 90 | 1007.5 |
| 20260506235031 | 50 | 12 | 0.0 | 4.0 | 0.00 | 0.09 | 0.00 | 90 | 1007.5 |
| 20260506234226 | 50 | 12 | 1.0 | 4.0 | 0.00 | 0.10 | 0.00 | 90 | 1007.5 |
| 20260506233717 | 50 | 23 | 1.0 | 5.0 | 0.00 | 0.13 | 0.00 | 90 | 1007.4 |
| 20260506233207 | 50 | 346 | 1.0 | 6.0 | 0.00 | 0.14 | 0.00 | 90 | 1007.3 |
| 20260506232957 | 50 | 359 | 1.0 | 6.0 | 0.00 | 0.17 | 0.00 | 90 | 1007.3 |
| 20260506232459 | 50 | 34 | 1.0 | 6.0 | 0.00 | 0.18 | 0.00 | 90 | 1007.3 |
| 20260506231705 | 50 | 1 | 1.0 | 7.0 | 0.00 | 0.20 | 0.00 | 90 | 1007.2 |
| 20260506231206 | 50 | 340 | 2.0 | 9.0 | 0.00 | 0.20 | 0.00 | 90 | 1007.2 |
| 20260506230947 | 50 | 8 | 2.0 | 9.0 | 0.00 | 0.25 | 0.00 | 90 | 1007.2 |
| 20260506230150 | 50 | 356 | 1.0 | 8.0 | 0.00 | 0.30 | 0.00 | 90 | 1007.3 |
| 20260506225650 | 50 | 1 | 1.0 | 7.0 | 0.00 | 0.31 | 0.00 | 90 | 1007.2 |
| 20260506225140 | 51 | 1 | 2.0 | 7.0 | 0.00 | 0.31 | 0.00 | 90 | 1007.1 |
| 20260506224633 | 50 | 35 | 2.0 | 7.0 | 0.00 | 0.31 | 0.00 | 90 | 1007.1 |
| 20260506224132 | 50 | 39 | 3.0 | 10.0 | 0.00 | 0.31 | 0.00 | 90 | 1007.2 |
| 20260506223626 | 50 | 43 | 4.0 | 10.0 | 0.00 | 0.31 | 0.00 | 90 | 1007.2 |
| 20260506223110 | 50 | 44 | 4.0 | 11.0 | 0.00 | 0.32 | 0.00 | 90 | 1007.0 |
| 20260506222606 | 51 | 41 | 4.0 | 11.0 | 0.00 | 0.32 | 0.00 | 90 | 1007.0 |
| 20260506222105 | 51 | 56 | 3.0 | 9.0 | 0.00 | 0.32 | 0.00 | 90 | 1007.0 |
| 20260506221605 | 51 | 53 | 3.0 | 9.0 | 0.00 | 0.32 | 0.00 | 90 | 1007.0 |
| 20260506221400 | 51 | 31 | 2.0 | 9.0 | 0.00 | 0.32 | 0.00 | 90 | 1007.0 |
| 20260506220606 | 51 | 72 | 1.0 | 7.0 | 0.00 | 0.32 | 0.00 | 90 | 1006.9 |
| 20260506220358 | 51 | 31 | 1.0 | 6.0 | 0.00 | 0.33 | 0.00 | 90 | 1007.0 |
| 20260506215558 | 51 | 33 | 2.0 | 6.0 | 0.00 | 0.34 | 0.33 | 90 | 1007.0 |
| 20260506215054 | 51 | 33 | 2.0 | 8.0 | 0.00 | 0.35 | 0.33 | 90 | 1006.8 |
| 20260506214555 | 51 | 0 | 2.0 | 8.0 | 0.00 | 0.36 | 0.33 | 89 | 1006.8 |
| 20260506214052 | 51 | 34 | 2.0 | 7.0 | 0.00 | 0.40 | 0.33 | 90 | 1006.6 |
| 20260506213552 | 52 | 306 | 2.0 | 7.0 | 0.00 | 0.51 | 0.33 | 90 | 1006.6 |
| 20260506213052 | 52 | 15 | 1.0 | 7.0 | 0.00 | 0.53 | 0.33 | 89 | 1006.6 |
| 20260506212550 | 52 | 359 | 1.0 | 7.0 | 0.00 | 0.53 | 0.33 | 89 | 1006.6 |
| 20260506212050 | 52 | 20 | 1.0 | 7.0 | 0.00 | 0.54 | 0.33 | 89 | 1006.5 |
| 20260506211850 | 52 | 2 | 1.0 | 8.0 | 0.00 | 0.55 | 0.33 | 89 | 1006.5 |
| 20260506211355 | 52 | 1 | 1.0 | 8.0 | 0.00 | 0.55 | 0.33 | 89 | 1006.4 |
| 20260506210538 | 52 | 48 | 2.0 | 8.0 | 0.00 | 0.55 | 0.33 | 89 | 1006.4 |
| 20260506210039 | 52 | 15 | 2.0 | 8.0 | 0.00 | 0.55 | 0.33 | 89 | 1006.4 |
| 20260506205538 | 53 | 14 | 1.0 | 6.0 | 0.00 | 0.55 | 0.33 | 89 | 1006.2 |
| 20260506205033 | 53 | 358 | 1.0 | 8.0 | 0.00 | 0.55 | 0.33 | 89 | 1006.3 |
| 20260506204531 | 53 | 0 | 2.0 | 8.0 | 0.00 | 0.55 | 0.33 | 89 | 1006.3 |
| 20260506204033 | 53 | 1 | 3.0 | 10.0 | 0.00 | 0.55 | 0.33 | 88 | 1006.3 |
| 20260506203531 | 53 | 1 | 3.0 | 10.0 | 0.00 | 0.55 | 0.33 | 88 | 1006.3 |
| 20260506203031 | 53 | 0 | 2.0 | 7.0 | 0.00 | 0.55 | 0.33 | 89 | 1006.3 |
| 20260506202836 | 53 | 0 | 2.0 | 6.0 | 0.00 | 0.55 | 0.33 | 89 | 1006.3 |
| 20260506202326 | 53 | 27 | 3.0 | 8.0 | 0.00 | 0.55 | 0.33 | 89 | 1006.4 |
| 20260506201533 | 53 | 27 | 2.0 | 8.0 | 0.00 | 0.55 | 0.33 | 88 | 1006.4 |
| 20260506201022 | 54 | 50 | 2.0 | 8.0 | 0.00 | 0.55 | 0.33 | 88 | 1006.4 |
| 20260506200514 | 54 | 56 | 2.0 | 7.0 | 0.00 | 0.55 | 0.33 | 88 | 1006.4 |
| 20260506200308 | 54 | 342 | 2.0 | 7.0 | 0.00 | 0.55 | 0.33 | 88 | 1006.3 |
| 20260506195801 | 54 | 307 | 2.0 | 7.0 | 0.00 | 0.55 | 0.33 | 89 | 1006.4 |
| 20260506194951 | 54 | 34 | 1.0 | 7.0 | 0.00 | 0.55 | 0.33 | 89 | 1006.0 |
| 20260506194450 | 54 | 18 | 1.0 | 6.0 | 0.00 | 0.55 | 0.33 | 89 | 1005.9 |
| 20260506193952 | 54 | 23 | 1.0 | 5.0 | 0.00 | 0.55 | 0.33 | 89 | 1005.8 |
| 20260506193445 | 54 | 1 | 0.0 | 5.0 | 0.00 | 0.55 | 0.33 | 89 | 1005.8 |
| 20260506192939 | 54 | 0 | 1.0 | 7.0 | 0.00 | 0.55 | 0.33 | 89 | 1005.8 |
| 20260506192439 | 54 | 340 | 1.0 | 7.0 | 0.00 | 0.55 | 0.33 | 89 | 1005.8 |
| 20260506192239 | 54 | 359 | 1.0 | 7.0 | 0.00 | 0.55 | 0.33 | 89 | 1005.7 |
| 20260506191737 | 54 | 3 | 1.0 | 6.0 | 0.00 | 0.55 | 0.33 | 89 | 1005.7 |
| 20260506191230 | 54 | 14 | 0.0 | 5.0 | 0.00 | 0.55 | 0.33 | 89 | 1005.7 |
| 20260506190432 | 54 | 342 | 0.0 | 5.0 | 0.00 | 0.55 | 0.33 | 88 | 1005.6 |
| 20260506185933 | 54 | 359 | 0.0 | 5.0 | 0.00 | 0.55 | 0.33 | 88 | 1005.6 |
| 20260506185432 | 54 | 0 | 0.0 | 5.0 | 0.00 | 0.55 | 0.33 | 88 | 1005.6 |
| 20260506184936 | 55 | 17 | 0.0 | 5.0 | 0.00 | 0.55 | 0.33 | 88 | 1005.5 |
| 20260506184435 | 55 | 6 | 1.0 | 6.0 | 0.00 | 0.55 | 0.33 | 88 | 1005.5 |
| 20260506184024 | 55 | 6 | 1.0 | 6.0 | 0.00 | 0.55 | 0.33 | 87 | 1005.5 |
| 20260506182932 | 55 | 22 | 2.0 | 8.0 | 0.00 | 0.55 | 0.33 | 87 | 1005.4 |
| 20260506182738 | 55 | 1 | 3.0 | 8.0 | 0.00 | 0.55 | 0.33 | 87 | 1005.4 |
| 20260506181933 | 56 | 6 | 3.0 | 8.0 | 0.00 | 0.55 | 0.33 | 86 | 1005.4 |
| 20260506181434 | 56 | 1 | 2.0 | 8.0 | 0.00 | 0.55 | 0.33 | 86 | 1005.3 |
| 20260506181234 | 56 | 0 | 2.0 | 7.0 | 0.00 | 0.55 | 0.33 | 86 | 1005.4 |
| 20260506180731 | 56 | 31 | 3.0 | 9.0 | 0.00 | 0.55 | 0.33 | 85 | 1005.4 |
| 20260506175933 | 56 | 1 | 3.0 | 9.0 | 0.00 | 0.55 | 0.33 | 85 | 1005.3 |
| 20260506175431 | 56 | 354 | 2.0 | 8.0 | 0.00 | 0.55 | 0.33 | 86 | 1005.2 |
| 20260506175225 | 56 | 16 | 1.0 | 7.0 | 0.00 | 0.55 | 0.33 | 86 | 1005.2 |
| 20260506174425 | 56 | 9 | 1.0 | 6.0 | 0.00 | 0.55 | 0.33 | 86 | 1005.2 |
| 20260506173925 | 57 | 0 | 1.0 | 8.0 | 0.00 | 0.55 | 0.33 | 86 | 1005.1 |
| 20260506173424 | 57 | 2 | 0.0 | 8.0 | 0.00 | 0.55 | 0.33 | 86 | 1005.1 |
| 20260506172923 | 57 | 355 | 1.0 | 5.0 | 0.00 | 0.55 | 0.33 | 85 | 1005.0 |
| 20260506172425 | 57 | 16 | 1.0 | 6.0 | 0.00 | 0.55 | 0.33 | 85 | 1005.0 |
| 20260506171915 | 58 | 0 | 2.0 | 7.0 | 0.00 | 0.55 | 0.33 | 84 | 1004.9 |
| 20260506171717 | 58 | 6 | 2.0 | 8.0 | 0.00 | 0.55 | 0.33 | 83 | 1004.9 |
| 20260506170913 | 58 | 8 | 3.0 | 10.0 | 0.00 | 0.55 | 0.33 | 83 | 1004.9 |
| 20260506170412 | 59 | 359 | 3.0 | 10.0 | 0.00 | 0.55 | 0.33 | 83 | 1004.7 |
| 20260506165906 | 59 | 347 | 2.0 | 9.0 | 0.00 | 0.55 | 0.33 | 82 | 1004.7 |
| 20260506165406 | 60 | 350 | 1.0 | 9.0 | 0.00 | 0.55 | 0.33 | 81 | 1004.5 |
| 20260506164905 | 60 | 302 | 2.0 | 10.0 | 0.00 | 0.55 | 0.33 | 81 | 1004.5 |
| 20260506164405 | 60 | 327 | 2.0 | 10.0 | 0.00 | 0.55 | 0.33 | 81 | 1004.5 |
| 20260506163905 | 60 | 8 | 1.0 | 9.0 | 0.00 | 0.55 | 0.33 | 81 | 1004.6 |
| 20260506163713 | 60 | 4 | 1.0 | 8.0 | 0.00 | 0.55 | 0.33 | 80 | 1004.6 |
| 20260506162909 | 60 | 328 | 3.0 | 10.0 | 0.00 | 0.55 | 0.33 | 80 | 1004.7 |
| 20260506162407 | 60 | 1 | 3.0 | 10.0 | 0.00 | 0.55 | 0.33 | 80 | 1004.7 |
| 20260506161859 | 61 | 355 | 3.0 | 10.0 | 0.00 | 0.55 | 0.33 | 80 | 1004.7 |
| 20260506161727 | 61 | 359 | 2.0 | 10.0 | 0.00 | 0.55 | 0.33 | 79 | 1004.8 |
| 20260506160858 | 61 | 0 | 2.0 | 9.0 | 0.00 | 0.55 | 0.33 | 79 | 1004.8 |
| 20260506160355 | 61 | 357 | 1.0 | 7.0 | 0.00 | 0.55 | 0.33 | 79 | 1004.8 |
| 20260506160226 | 62 | 321 | 1.0 | 6.0 | 0.00 | 0.55 | 0.33 | 79 | 1004.9 |
| 20260506155341 | 62 | 8 | 1.0 | 7.0 | 0.00 | 0.55 | 0.33 | 78 | 1004.8 |
| 20260506155138 | 62 | 333 | 2.0 | 7.0 | 0.00 | 0.55 | 0.33 | 78 | 1004.8 |
| 20260506154737 | 63 | 26 | 3.0 | 9.0 | 0.00 | 0.55 | 0.33 | 76 | 1004.9 |
| 20260506153333 | 64 | 346 | 3.0 | 10.0 | 0.00 | 0.55 | 0.33 | 76 | 1004.8 |
| 20260506152836 | 64 | 344 | 3.0 | 10.0 | 0.00 | 0.55 | 0.33 | 76 | 1005.0 |
| 20260506152335 | 63 | 13 | 4.0 | 12.0 | 0.00 | 0.55 | 0.33 | 76 | 1004.9 |
| 20260506151834 | 63 | 345 | 3.0 | 12.0 | 0.00 | 0.55 | 0.33 | 75 | 1005.0 |
| 20260506151637 | 64 | 25 | 2.0 | 10.0 | 0.00 | 0.55 | 0.33 | 76 | 1005.0 |
| 20260506150833 | 64 | 357 | 2.0 | 10.0 | 0.00 | 0.55 | 0.33 | 76 | 1004.9 |
| 20260506150628 | 64 | 13 | 2.0 | 9.0 | 0.00 | 0.55 | 0.33 | 75 | 1004.9 |
| 20260506145834 | 64 | 288 | 3.0 | 9.0 | 0.00 | 0.55 | 0.33 | 75 | 1004.9 |
| 20260506145334 | 64 | 292 | 3.0 | 9.0 | 0.00 | 0.55 | 0.33 | 76 | 1004.8 |
| 20260506144838 | 64 | 294 | 3.0 | 9.0 | 0.00 | 0.55 | 0.33 | 75 | 1004.9 |
| 20260506144337 | 64 | 293 | 1.0 | 6.0 | 0.00 | 0.55 | 0.33 | 75 | 1004.9 |
| 20260506144129 | 64 | 309 | 2.0 | 7.0 | 0.00 | 0.55 | 0.33 | 75 | 1004.9 |
| 20260506143646 | 64 | 359 | 2.0 | 7.0 | 0.00 | 0.55 | 0.33 | 73 | 1004.8 |
| 20260506142835 | 65 | 300 | 2.0 | 6.0 | 0.00 | 0.55 | 0.33 | 74 | 1004.8 |
| 20260506142335 | 64 | 71 | 2.0 | 6.0 | 0.00 | 0.55 | 0.33 | 76 | 1004.7 |
| 20260506141835 | 64 | 9 | 2.0 | 8.0 | 0.00 | 0.55 | 0.33 | 75 | 1004.7 |
| 20260506141335 | 64 | 291 | 2.0 | 8.0 | 0.00 | 0.55 | 0.33 | 73 | 1004.7 |
| 20260506140834 | 64 | 314 | 1.0 | 7.0 | 0.00 | 0.55 | 0.33 | 76 | 1004.8 |
| 20260506140332 | 64 | 312 | 2.0 | 8.0 | 0.00 | 0.55 | 0.33 | 76 | 1004.9 |
| 20260506135832 | 64 | 330 | 3.0 | 8.0 | 0.00 | 0.55 | 0.33 | 75 | 1004.9 |
| 20260506135335 | 64 | 289 | 2.0 | 8.0 | 0.00 | 0.55 | 0.33 | 75 | 1005.0 |
| 20260506134835 | 64 | 294 | 2.0 | 8.0 | 0.00 | 0.55 | 0.33 | 75 | 1005.0 |
| 20260506134334 | 64 | 340 | 1.0 | 6.0 | 0.00 | 0.55 | 0.33 | 74 | 1004.9 |
| 20260506134126 | 65 | 354 | 2.0 | 10.0 | 0.00 | 0.55 | 0.33 | 72 | 1004.9 |
| 20260506133333 | 65 | 248 | 2.0 | 10.0 | 0.00 | 0.55 | 0.33 | 71 | 1004.9 |
| 20260506133126 | 65 | 326 | 1.0 | 6.0 | 0.00 | 0.55 | 0.33 | 71 | 1004.9 |
| 20260506132337 | 65 | 252 | 2.0 | 8.0 | 0.00 | 0.55 | 0.33 | 73 | 1004.9 |
| 20260506131832 | 64 | 298 | 3.0 | 10.0 | 0.00 | 0.55 | 0.33 | 73 | 1004.9 |
| 20260506131332 | 64 | 278 | 3.0 | 10.0 | 0.00 | 0.55 | 0.33 | 75 | 1005.0 |
| 20260506130834 | 64 | 303 | 3.0 | 8.0 | 0.00 | 0.55 | 0.33 | 75 | 1004.9 |
| 20260506130332 | 64 | 293 | 3.0 | 8.0 | 0.00 | 0.55 | 0.33 | 74 | 1005.0 |
| 20260506125833 | 65 | 333 | 3.0 | 10.0 | 0.00 | 0.55 | 0.33 | 73 | 1004.9 |
| 20260506125332 | 65 | 304 | 3.0 | 11.0 | 0.00 | 0.55 | 0.33 | 74 | 1004.9 |
| 20260506124929 | 65 | 292 | 3.0 | 11.0 | 0.00 | 0.55 | 0.33 | 72 | 1004.9 |
| 20260506123829 | 66 | 276 | 5.0 | 12.0 | 0.00 | 0.55 | 0.33 | 72 | 1005.0 |
| 20260506123328 | 65 | 276 | 4.0 | 9.0 | 0.00 | 0.55 | 0.33 | 75 | 1005.0 |
| 20260506122832 | 65 | 244 | 4.0 | 11.0 | 0.00 | 0.55 | 0.33 | 76 | 1004.9 |
| 20260506122330 | 65 | 326 | 5.0 | 13.0 | 0.00 | 0.55 | 0.33 | 73 | 1004.8 |
| 20260506121829 | 65 | 257 | 5.0 | 13.0 | 0.00 | 0.55 | 0.33 | 72 | 1004.9 |
| 20260506121621 | 66 | 201 | 4.0 | 11.0 | 0.00 | 0.55 | 0.33 | 72 | 1004.8 |
| 20260506120824 | 65 | 299 | 5.0 | 14.0 | 0.00 | 0.55 | 0.33 | 73 | 1004.7 |
| 20260506120325 | 65 | 273 | 6.0 | 14.0 | 0.00 | 0.55 | 0.33 | 73 | 1004.7 |
| 20260506115821 | 64 | 235 | 5.0 | 13.0 | 0.00 | 0.55 | 0.33 | 74 | 1004.7 |
| 20260506115321 | 64 | 272 | 5.0 | 13.0 | 0.00 | 0.55 | 0.33 | 75 | 1004.8 |
| 20260506114816 | 63 | 275 | 5.0 | 12.0 | 0.00 | 0.55 | 0.33 | 76 | 1004.8 |
| 20260506114403 | 64 | 282 | 6.0 | 13.0 | 0.00 | 0.55 | 0.33 | 76 | 1004.8 |
| 20260506113306 | 64 | 219 | 5.0 | 12.0 | 0.00 | 0.55 | 0.33 | 76 | 1004.9 |
| 20260506112804 | 63 | 201 | 3.0 | 11.0 | 0.00 | 0.55 | 0.33 | 78 | 1004.9 |
| 20260506112307 | 62 | 258 | 4.0 | 11.0 | 0.00 | 0.55 | 0.33 | 77 | 1005.0 |
| 20260506112059 | 63 | 240 | 4.0 | 13.0 | 0.00 | 0.55 | 0.33 | 77 | 1004.9 |
| 20260506111305 | 62 | 283 | 5.0 | 14.0 | 0.00 | 0.55 | 0.33 | 79 | 1004.9 |
| 20260506110805 | 62 | 286 | 5.0 | 15.0 | 0.00 | 0.55 | 0.33 | 79 | 1004.9 |
| 20260506110259 | 62 | 210 | 4.0 | 15.0 | 0.00 | 0.55 | 0.33 | 78 | 1004.9 |
| 20260506110050 | 62 | 232 | 4.0 | 15.0 | 0.00 | 0.55 | 0.33 | 78 | 1004.8 |
| 20260506105236 | 62 | 271 | 5.0 | 15.0 | 0.00 | 0.55 | 0.33 | 77 | 1004.8 |
| 20260506104735 | 63 | 231 | 5.0 | 14.0 | 0.00 | 0.55 | 0.33 | 78 | 1004.7 |
| 20260506104235 | 64 | 278 | 6.0 | 15.0 | 0.00 | 0.55 | 0.33 | 77 | 1004.7 |
| 20260506103735 | 64 | 244 | 6.0 | 15.0 | 0.00 | 0.55 | 0.33 | 76 | 1004.5 |
| 20260506103234 | 63 | 359 | 6.0 | 16.0 | 0.00 | 0.55 | 0.33 | 78 | 1004.5 |
| 20260506103029 | 62 | 251 | 6.0 | 16.0 | 0.00 | 0.55 | 0.33 | 77 | 1004.5 |
| 20260506102531 | 62 | 250 | 6.0 | 16.0 | 0.00 | 0.55 | 0.33 | 77 | 1004.5 |
| 20260506101732 | 63 | 227 | 5.0 | 16.0 | 0.00 | 0.55 | 0.33 | 77 | 1004.4 |
| 20260506101535 | 64 | 285 | 5.0 | 15.0 | 0.00 | 0.55 | 0.33 | 77 | 1004.5 |
| 20260506100732 | 64 | 199 | 6.0 | 18.0 | 0.00 | 0.55 | 0.33 | 78 | 1004.3 |
| 20260506100533 | 63 | 190 | 7.0 | 18.0 | 0.00 | 0.55 | 0.33 | 79 | 1004.4 |
| 20260506095733 | 63 | 198 | 6.0 | 15.0 | 0.00 | 0.55 | 0.33 | 80 | 1004.3 |
| 20260506095232 | 62 | 274 | 5.0 | 15.0 | 0.00 | 0.55 | 0.33 | 82 | 1004.3 |
| 20260506094733 | 61 | 248 | 5.0 | 13.0 | 0.00 | 0.55 | 0.33 | 83 | 1004.3 |
| 20260506094232 | 61 | 185 | 5.0 | 13.0 | 0.00 | 0.55 | 0.33 | 82 | 1004.1 |
| 20260506093733 | 61 | 300 | 5.0 | 16.0 | 0.00 | 0.55 | 0.33 | 82 | 1004.2 |
| 20260506093238 | 61 | 226 | 7.0 | 17.0 | 0.00 | 0.55 | 0.33 | 81 | 1004.0 |
| 20260506092734 | 61 | 254 | 6.0 | 17.0 | 0.00 | 0.55 | 0.33 | 80 | 1004.0 |
| 20260506092526 | 61 | 195 | 7.0 | 21.0 | 0.00 | 0.55 | 0.33 | 80 | 1003.8 |
| 20260506091813 | 61 | 249 | 8.0 | 21.0 | 0.00 | 0.55 | 0.33 | 79 | 1003.7 |
| 20260506090732 | 63 | 231 | 8.0 | 19.0 | 0.00 | 0.55 | 0.33 | 78 | 1003.6 |
| 20260506090233 | 62 | 188 | 8.0 | 19.0 | 0.00 | 0.55 | 0.33 | 79 | 1003.6 |
| 20260506085733 | 62 | 224 | 7.0 | 17.0 | 0.00 | 0.55 | 0.33 | 81 | 1003.4 |
| 20260506085233 | 61 | 218 | 6.0 | 16.0 | 0.00 | 0.55 | 0.33 | 83 | 1003.6 |
| 20260506084732 | 60 | 253 | 6.0 | 15.0 | 0.00 | 0.55 | 0.33 | 83 | 1003.5 |
| 20260506084234 | 61 | 252 | 6.0 | 15.0 | 0.00 | 0.55 | 0.33 | 82 | 1003.4 |
| 20260506083734 | 61 | 266 | 6.0 | 20.0 | 0.00 | 0.55 | 0.33 | 82 | 1003.1 |
| 20260506083234 | 62 | 219 | 7.0 | 20.0 | 0.00 | 0.55 | 0.33 | 80 | 1003.2 |
| 20260506082733 | 62 | 256 | 6.0 | 20.0 | 0.01 | 0.55 | 0.33 | 79 | 1003.1 |
| 20260506082233 | 62 | 258 | 6.0 | 17.0 | 0.01 | 0.55 | 0.33 | 81 | 1003.0 |
| 20260506082033 | 61 | 217 | 6.0 | 16.0 | 0.01 | 0.55 | 0.33 | 82 | 1003.0 |
| 20260506081232 | 60 | 281 | 5.0 | 16.0 | 0.01 | 0.55 | 0.33 | 83 | 1003.1 |
| 20260506080733 | 60 | 231 | 6.0 | 17.0 | 0.01 | 0.55 | 0.33 | 83 | 1003.0 |
| 20260506080233 | 60 | 256 | 6.0 | 17.0 | 0.01 | 0.55 | 0.33 | 84 | 1003.1 |
| 20260506073228 | 60 | 191 | 7.0 | 18.0 | 0.01 | 0.56 | 0.33 | 86 | 1003.0 |
| 20260506072728 | 60 | 195 | 5.0 | 14.0 | 0.00 | 0.55 | 0.32 | 88 | 1003.1 |
| 20260506072229 | 60 | 176 | 5.0 | 10.0 | 0.00 | 0.55 | 0.32 | 89 | 1003.0 |
| 20260506071722 | 59 | 190 | 4.0 | 13.0 | 0.00 | 0.55 | 0.32 | 90 | 1003.1 |
| 20260506071226 | 58 | 202 | 4.0 | 13.0 | 0.00 | 0.55 | 0.32 | 90 | 1003.1 |
| 20260506070712 | 58 | 200 | 3.0 | 10.0 | 0.00 | 0.55 | 0.32 | 91 | 1003.1 |
| 20260506070500 | 58 | 221 | 3.0 | 11.0 | 0.00 | 0.55 | 0.32 | 91 | 1003.1 |
| 20260506062204 | 57 | 180 | 2.0 | 10.0 | 0.00 | 0.56 | 0.32 | 93 | 1002.9 |
| 20260506061706 | 56 | 236 | 2.0 | 10.0 | 0.00 | 0.56 | 0.32 | 93 | 1002.9 |
| 20260506061202 | 56 | 160 | 1.0 | 6.0 | 0.00 | 0.57 | 0.32 | 94 | 1003.0 |
| 20260506060654 | 56 | 131 | 0.0 | 6.0 | 0.00 | 0.57 | 0.32 | 94 | 1003.0 |
| 20260506060144 | 56 | 148 | 0.0 | 5.0 | 0.00 | 0.57 | 0.32 | 94 | 1003.0 |
| 20260506051118 | 56 | 130 | 0.0 | 1.0 | 0.00 | 0.57 | 0.32 | 95 | 1003.0 |
| 20260506050608 | 56 | 130 | 0.0 | 2.0 | 0.00 | 0.57 | 0.32 | 95 | 1003.0 |
| 20260506050112 | 56 | 127 | 0.0 | 2.0 | 0.00 | 0.57 | 0.32 | 95 | 1003.0 |
| 20260506045101 | 56 | 157 | 0.0 | 0.0 | 0.00 | 0.57 | 0.32 | 95 | 1003.2 |
| 20260506044554 | 55 | 155 | 0.0 | 1.0 | 0.00 | 0.57 | 0.32 | 95 | 1003.3 |